Regional Weather Roundup
Issued by NWS

Home | Current Version | Previous Version | Graphics & Text | Print | Product List | Glossary On
Versions: 1 2 3 4 5 6 7 8 9 10 11 12 13 14 15 16 17 18 19 20 21 22 23 24 25 26 27 28 29 30 31 32 33 34 35 36 37 38 39 40 41 42 43 44 45 46 47 48 49 50
000
ASUS43 KLOT 292308
RWRIL

ILLINOIS REGIONAL WEATHER ROUNDUP
NATIONAL WEATHER SERVICE CHICAGO/ROMEOVILLE IL
600 PM CDT SUN MAR 29 2015

NOTE: "FAIR" INDICATES FEW OR NO CLOUDS BELOW 12,000 FEET WITH NO
SIGNIFICANT WEATHER AND/OR OBSTRUCTIONS TO VISIBILITY.

* THESE STATIONS ARE NOT UNDER NWS QUALITY CONTROL. THEY ALSO MAY NOT
  REPORT WEATHER SUCH AS PRECIPITATION OR FOG.

ILZ001-002-007-009-015-016-024-300000-
NORTHWEST ILLINOIS

CITY           SKY/WX    TMP DP  RH WIND       PRES   REMARKS
MOLINE         PTSUNNY   56  39  53 NW24G32   29.82R
STERLING*      CLOUDY    54  43  66 NW20G29   29.80R
SAVANNA*       MOSUNNY   54  39  56 NW20G31   29.80R
$$

ILZ003-004-008-010-011-017-018-300000-
NORTH CENTRAL ILLINOIS

CITY           SKY/WX    TMP DP  RH WIND       PRES   REMARKS
ROCKFORD       DRIZZLE   50  39  66 NW22G39   29.79R
FREEPORT*      MOSUNNY   47  38  70 NW24G36   29.80R
ROCHELLE*      CLOUDY    46  40  79 SW15      29.77R
DE KALB*       CLOUDY    43  37  78 SW16      29.76S
PERU*          CLOUDY    52  39  61 SW22      29.79F
$$

ILZ005-006-012>014-019>023-300000-
NORTHEAST ILLINOIS

CITY           SKY/WX    TMP DP  RH WIND       PRES   REMARKS
CHICAGO-OHARE  PTSUNNY   46  33  60 SW21G30   29.74F
CHICAGO-MIDWAY CLOUDY    48  34  58 SW18G25   29.77F
AURORA         CLOUDY    47  33  58 SW17      29.77F
LANSING*       PTSUNNY   46  33  58 SW18G33   29.80F
JOLIET*        CLOUDY    50  36  59 SW12G23   29.80F
WAUKEGAN       CLOUDY    44  35  70 SW21G26   29.70F
DUPAGE AIRPORT CLOUDY    46  34  62 SW23G31   29.75F
KANKAKEE*      PTSUNNY   48  37  64 SW20G29   29.84F
WHEELING       CLOUDY    46  33  60 S15G28    29.74F
MORRIS*        CLOUDY    49  36  61 SW16G24   29.79F
ROMEOVILLE*    CLOUDY    47  34  59 SW16G26   29.79S
NORTHERLY ISL    N/A     47  32  56 S10         N/A
$$

LMZ740>746-300000-
SOUTHERN LAKE MICHIGAN

STATION/POSITION SKY/WX   TEMP    WIND        PRES    VSBY  WAVE
                          AIR SEA DIR/SP/G                  HT/PER
                          (F)     (DEG/KT/KT) (MB)    (MI)  (FT/S)
HARRISON CRIB              44     220/ 25/ 33   N/A
BURNHAM HARBOR             47     220/  8/ 19   N/A
CALUMET HARBOR             45     200/ 15/ 24 1008.4F
BURNS HARBOR               42     210/ 20     1010.5F
MICHIGAN CITY              40     180/ 20/ 27   N/A
$$

ILZ025>027-034>036-040-047-049-050-058-095>099-300000-
WEST-CENTRAL ILLINOIS

CITY           SKY/WX    TMP DP  RH WIND       PRES   REMARKS
QUINCY         CLOUDY    58  40  51 W8        29.91R
GALESBURG*     CLOUDY    54  43  66 SW12      29.85R
MACOMB*        CLOUDY    56  43  61 W15       29.89R
JACKSONVILLE*  PTSUNNY   58  40  50 SW15      29.91S
PITTSFIELD*    PTSUNNY   57  40  52 W13       29.93S
$$

ILZ028>032-037-038-041>044-048-051>054-059>061-300000-
CENTRAL ILLINOIS

CITY           SKY/WX    TMP DP  RH WIND       PRES   REMARKS
PONTIAC        PTSUNNY   52  38  59 SW17G25   29.84F
BLOOMINGTON    PTSUNNY   54  37  52 SW21      29.87F
DECATUR        PTSUNNY   52  39  61 SW16      29.91F
PEORIA         CLOUDY    57  39  51 SW13      29.85F
LACON*         CLOUDY    54  38  56 SW13G18   29.82S
LINCOLN*       PTSUNNY   57  38  48 W10G17    29.88F
SPRINGFIELD    PTSUNNY   57  39  51 W16       29.91S
TAYLORVILLE    PTSUNNY   52  41  66 SW15      29.92S
$$

ILZ033-039-045-046-055>057-062-063-300000-
EAST-CENTRAL ILLINOIS

CITY           SKY/WX    TMP DP  RH WIND       PRES   REMARKS
CHAMPAIGN      PTSUNNY   49  40  71 SW15      29.90F
DANVILLE*      PTSUNNY   44  37  74 SW17      29.87F
RANTOUL*       MOSUNNY   50  40  67 SW18G24   29.88F
MATTOON        CLOUDY    48  39  71 SW7       29.92F
PARIS*         CLOUDY    44  40  86 S8        29.94S
$$

ILZ079-100>102-300000-
SOUTHWEST ILLINOIS

CITY           SKY/WX    TMP DP  RH WIND       PRES   REMARKS
BELLEVILLE     CLOUDY    56  46  69 W5        29.95R
CAHOKIA*       CLOUDY    57  44  62 W9        29.95R
SPARTA*        CLOUDY    53  42  65 S13       29.97S
$$

ILZ064>066-069>071-074>076-080>082-084>086-088>090-092>094-300000-
SOUTH-CENTRAL ILLINOIS

CITY           SKY/WX    TMP DP  RH WIND       PRES   REMARKS
CARBONDALE     CLOUDY    54  41  61 S17       29.97F
CAIRO*         CLOUDY    57  45  64 SW12G18   30.02R
EFFINGHAM*     CLOUDY    50  39  67 SW7       29.96F
MARION         PTSUNNY   55  41  58 SW10G18   30.01S
MT. VERNON     CLOUDY    54  39  58 S13       29.94F
CENTRALIA*     LGT RAIN  51  41  68 SW15      29.94F
SALEM*         RAIN      53  44  71 SW13G21   29.96S
METROPOLIS*    MOSUNNY   60  43  54 SW13G18   30.01R
$$

ILZ067-068-072-073-078-083-087-091-300000-
SOUTHEAST ILLINOIS

CITY           SKY/WX    TMP DP  RH WIND       PRES   REMARKS
LAWRENCEVILLE  LGT RAIN  54  37  52 S16       29.95F
FLORA*         LGT RAIN  52  42  68 S17       29.94F
FAIRFIELD*     LGT RAIN  53  41  62 S15G21    29.95F
HARRISBURG*    CLOUDY    55  39  54 SW10      30.02S
ROBINSON*      LGT RAIN  49  40  70 SW10      29.96F
CARMI*         CLOUDY    56  35  45 SW13      30.00R
$$

ABBREVIATIONS USED IN REMARKS
   TC - TEMPERATURE IN CELSIUS
  WCI - WIND CHILL INDEX
   HX - HEAT INDEX
  VSB - VISIBILITY
$$




USA.gov is the U.S. government's official web portal to all federal, state and local government web resources and services.